Regional Weather Roundup
Issued by NWS

Home | Current Version | Previous Version | Graphics & Text | Print | Product List | Glossary On
Versions: 1 2 3 4 5 6 7 8 9 10 11 12 13 14 15 16 17 18 19 20 21 22 23 24 25 26 27 28 29 30 31 32 33 34 35 36 37 38 39 40 41 42 43 44 45 46 47 48 49 50
000
ASUS43 KTOP 181608
RWRKS

WEATHER ROUNDUP FOR KANSAS
NATIONAL WEATHER SERVICE GOODLAND KS
1100 AM CDT FRI APR 18 2014

NOTE:  "FAIR" INDICATES FEW OR NO CLOUDS BELOW 12,000 FEET WITH NO
SIGNIFICANT WEATHER AND/OR OBSTRUCTIONS TO VISIBILITY.

KSZ001>006-013>018-027>032-041>047-181700-
NORTHWEST KANSAS

CITY           SKY/WX    TMP DP  RH WIND       PRES   REMARKS
GOODLAND       SUNNY     54  39  57 S22       30.05F
HAYS           SUNNY     61  45  55 S23G29    30.17F
HILL CITY      SUNNY     58  42  55 S23G31    30.14F
RUSSELL        SUNNY     58  41  53 S16       30.18F
$$

KSZ061>065-074>080-084>089-181700-
SOUTHWEST KANSAS

CITY           SKY/WX    TMP DP  RH WIND       PRES   REMARKS
DODGE CITY     MOSUNNY   55  43  63 S20G31    30.18F
ELKHART          N/A     56  36  47 S18         N/A
GARDEN CITY    SUNNY     53  43  68 S24G32    30.14F
GREAT BEND     SUNNY     57  43  58 S16       30.20F
LIBERAL        SUNNY     54  43  66 S20       30.19S
PRATT          SUNNY     54  39  58 S14       30.23F
$$

KSZ066>073-081>083-090>101-181700-
SOUTHEAST KANSAS

CITY           SKY/WX    TMP DP  RH WIND       PRES   REMARKS
CHANUTE        SUNNY     58  43  57 SE3       30.30F
COFFEYVILLE    SUNNY     58  44  60 VRB3      30.29F
HUTCHINSON     SUNNY     56  38  50 S10       30.25F
MEDICINE LODGE   N/A     52  39  61 SE7       30.24F
NEWTON         SUNNY     55  37  50 SE8       30.30S
PARSONS        SUNNY     60  44  55 VRB3      30.30F
WICHITA INTL   MOSUNNY   55  39  54 SE8       30.27S
WICHITA JABRA  SUNNY     55  40  56 SE7       30.27F
WICHITA MCCONL SUNNY     56  43  60 SE5       30.28S
WINFIELD       SUNNY     60  44  55 VRB3      30.29S
$$

KSZ007>012-019>026-033>040-048>060-102>105-181700-
NORTHEAST KANSAS

CITY           SKY/WX    TMP DP  RH WIND       PRES   REMARKS
CONCORDIA      SUNNY     56  37  49 S16       30.23F
EMPORIA        SUNNY     55  39  54 S8        30.28F
LAWRENCE       SUNNY     54  37  52 SE7       30.32S
MANHATTAN      SUNNY     54  37  52 VRB6      30.27F HAZE
OLATHE IND     SUNNY     56  40  55 CALM      30.32S
OLATHE EXE     SUNNY     54  40  59 E5        30.31S
SALINA         SUNNY     58  38  47 S13G20    30.25F HAZE
TOPEKA BILLARD SUNNY     54  38  54 VRB6      30.31F
TOPEKA FORBES  SUNNY     54  38  54 E9        30.30F
$$



USA.gov is the U.S. government's official web portal to all federal, state and local government web resources and services.